KI5NYZ-13 Weather Reports


time (UTC)temp
F
wind
direction
speed
knots
gust
knots
rain 1hr
in
rain 24hr
in
rain mn
in
humidity
%
barometer
mb
20260503200347 75 213 3.5 5.2 0.00 0.00 0.00 32 1013.1
20260503193347 74 233 4.3 4.3 0.00 0.00 0.00 33 1014.0
20260503190345 74 198 5.2 5.2 0.00 0.00 0.00 34 1014.4
20260503183344 72 213 5.2 5.2 0.00 0.00 0.00 35 1015.5
20260503180343 71 218 3.5 5.2 0.00 0.00 0.00 37 1016.3
20260503173342 70 203 3.5 3.5 0.00 0.00 0.00 39 1017.0
20260503170341 69 216 5.2 5.2 0.00 0.00 0.00 40 1017.5
20260503150337 63 234 4.3 4.3 0.00 0.00 0.00 53 1019.8
20260503130333 50 234 2.6 2.6 0.00 0.00 0.00 83 1022.1
20260503110329 48 242 1.7 1.7 0.00 0.00 0.00 86 1021.6
20260503090325 50 251 1.7 1.7 0.00 0.00 0.00 83 1021.6
20260503080323 51 252 2.6 2.6 0.00 0.00 0.00 80 1021.5
20260503070321 52 251 2.6 2.6 0.00 0.00 0.00 76 1021.7
20260503060319 53 229 1.7 1.7 0.00 0.00 0.00 73 1021.6
20260503053318 54 232 1.7 1.7 0.00 0.00 0.00 74 1021.6
20260503050317 54 240 2.6 2.6 0.00 0.00 0.00 74 1021.5
20260503043316 55 223 1.7 1.7 0.00 0.00 0.00 72 1021.2
20260503040315 56 226 1.7 1.7 0.00 0.00 0.00 67 1020.8
20260503033314 57 221 0.0 0.9 0.00 0.00 0.00 64 1020.4
20260503030313 59 205 0.0 0.9 0.00 0.00 0.00 58 1019.6
20260503023312 60 223 0.9 0.9 0.00 0.00 0.00 54 1019.1
20260503020311 61 229 0.9 0.9 0.00 0.00 0.00 51 1018.7
20260503013310 64 207 0.9 1.7 0.00 0.00 0.00 45 1018.0
20260503010309 66 243 2.6 3.5 0.00 0.00 0.00 39 1017.6
20260503003308 68 259 2.6 2.6 0.00 0.00 0.00 36 1017.1
20260503000307 68 262 2.6 3.5 0.00 0.00 0.00 36 1017.2
20260502233306 68 272 2.6 3.5 0.00 0.00 0.00 35 1017.1
20260502230305 68 268 2.6 2.6 0.00 0.00 0.00 36 1017.3
20260502223304 69 213 2.6 2.6 0.00 0.00 0.00 34 1017.1
20260502220303 67 314 3.5 3.5 0.00 0.01 0.00 37 1018.0
20260502213303 66 304 4.3 4.3 0.00 0.01 0.00 38 1018.6
20260502210301 66 229 0.9 2.6 0.00 0.01 0.00 39 1019.2
20260502203300 67 261 3.5 3.5 0.00 0.01 0.00 38 1019.1